Torna al catalogo

COSMOS 1275 DEB

AttivoPO
NORAD 42229·DEBRIS·🇷🇺 Russia

Lanciato Jun 4, 1981 da Plesetsk Cosmodrome

Loading…

Prossimi Passaggi (prossime 24 ore)

TLE

AggiornatoSource: Space-Track

Epoca: Sep 11, 2026, 21:40 UTC

1 42229U 81053UV  26254.90286325  .00000420  00000-0  56241-3 0  9997
2 42229  83.0168 309.7714 0218294  23.9983 337.1148 13.48728574628673

Traccia COSMOS 1275 DEB in tempo reale con AllMySat

Download on the App Store